GW3101 Weather Reports


time (UTC)temp
C
wind
direction
speed
KPH
gust
KPH
rain 1hr
cm
rain 24hr
cm
rain mn
cm
humidity
%
barometer
mb
20260506192927 13 116 1.6 1.6 0.00 0.33 0.33 99 1007.4
20260506192424 13 173 1.6 1.6 0.18 0.33 0.33 99 1007.4
20260506191920 13 117 1.6 3.2 0.18 0.33 0.33 99 1007.3
20260506191417 13 142 4.8 4.8 0.00 0.30 0.30 99 1007.2
20260506190914 13 225 3.2 3.2 0.00 0.30 0.30 99 1007.6
20260506190410 13 202 4.8 8.0 0.13 0.30 0.30 98 1007.5
20260506185907 13 148 0.0 0.0 0.13 0.30 0.30 98 1007.7
20260506185404 13 229 1.6 3.2 0.18 0.28 0.28 98 1007.5
20260506184902 14 232 0.0 0.0 0.18 0.28 0.28 98 1007.6
20260506184358 14 279 3.2 4.8 0.13 0.25 0.25 98 1007.6
20260506183856 14 205 4.8 4.8 0.30 0.25 0.25 97 1007.6
20260506183350 14 170 3.2 3.2 0.30 0.23 0.23 97 1007.3
20260506182848 15 167 8.0 11.3 0.48 0.23 0.23 96 1007.6
20260506182345 15 165 4.8 8.0 0.43 0.20 0.20 96 1007.6
20260506181843 15 152 6.4 9.7 0.30 0.15 0.15 95 1007.8
20260506181341 15 286 1.6 1.6 0.30 0.13 0.13 94 1007.9
20260506180837 15 173 0.0 0.0 0.30 0.10 0.10 94 1007.9
20260506180333 15 243 1.6 1.6 0.36 0.08 0.08 93 1008.3
20260506175830 15 183 0.0 0.0 0.18 0.05 0.05 92 1008.0
20260506175327 15 253 1.6 1.6 0.00 0.03 0.03 91 1008.2
20260506174824 16 154 0.0 1.6 0.13 0.03 0.03 91 1008.4
20260506174321 16 147 0.0 0.0 0.13 0.03 0.03 89 1008.4
20260506173819 16 270 3.2 8.0 0.00 0.00 0.00 88 1008.3
20260506173315 16 195 1.6 1.6 0.00 0.00 0.00 87 1008.5
20260506172813 17 181 1.6 1.6 0.00 0.00 0.00 86 1008.7
20260506172309 17 355 0.0 1.6 0.00 0.00 0.00 84 1008.8
20260506171807 17 215 4.8 4.8 0.00 0.00 0.00 82 1008.7
20260506171303 18 5 3.2 3.2 0.00 0.00 0.00 80 1008.7
20260506170801 18 139 4.8 4.8 0.00 0.00 0.00 78 1008.7
20260506170257 18 22 4.8 8.0 0.00 0.00 0.00 76 1008.5
20260506165756 19 193 4.8 4.8 0.00 0.00 0.00 75 1008.6
20260506165253 19 195 3.2 8.0 0.00 0.00 0.00 74 1008.7
20260506164750 20 165 3.2 4.8 0.00 0.00 0.00 74 1008.3
20260506164246 19 125 11.3 12.9 0.00 0.00 0.00 74 1008.5
20260506163744 20 203 9.7 12.9 0.00 0.00 0.00 73 1008.3
20260506163238 20 119 17.7 22.5 0.00 0.00 0.00 73 1008.3
20260506162734 20 177 6.4 9.7 0.00 0.00 0.00 72 1008.4
20260506162232 19 148 6.4 8.0 0.00 0.00 0.00 74 1008.4
20260506161724 20 183 1.6 3.2 0.00 0.00 0.00 73 1008.5
20260506161221 20 281 3.2 3.2 0.00 0.00 0.00 73 1008.6
20260506160718 20 27 1.6 1.6 0.00 0.00 0.00 73 1008.8
20260506160215 20 256 4.8 4.8 0.00 0.00 0.00 72 1008.8
20260506155713 20 167 11.3 16.1 0.00 0.00 0.00 71 1008.8
20260506155210 20 175 3.2 3.2 0.00 0.00 0.00 71 1008.6
20260506153312 20 185 3.2 3.2 0.00 0.00 0.00 71 1008.8
20260506152809 20 193 4.8 8.0 0.00 0.00 0.00 71 1009.0
20260506152306 20 183 3.2 4.8 0.00 0.00 0.00 70 1008.9
20260506151805 20 244 6.4 9.7 0.00 0.00 0.00 70 1008.9
20260506151301 20 139 3.2 3.2 0.00 0.00 0.00 71 1009.1
20260506150758 20 292 4.8 8.0 0.00 0.00 0.00 72 1009.2
20260506150303 20 167 8.0 11.3 0.00 0.00 0.00 71 1009.2
20260506145752 20 243 8.0 11.3 0.00 0.00 0.00 72 1009.2
20260506145248 20 253 1.6 1.6 0.00 0.00 0.00 73 1009.3
20260506144746 20 133 8.0 12.9 0.00 0.00 0.00 71 1009.2
20260506144243 20 178 4.8 11.3 0.00 0.00 0.00 72 1009.2
20260506143740 20 209 4.8 8.0 0.00 0.00 0.00 73 1009.2
20260506143237 20 226 8.0 11.3 0.00 0.00 0.00 73 1009.6
20260506142736 19 257 4.8 4.8 0.00 0.00 0.00 75 1009.4
20260506142233 18 253 6.4 9.7 0.00 0.00 0.00 76 1009.3
20260506141731 18 165 4.8 9.7 0.00 0.00 0.00 77 1009.6
20260506141229 18 165 6.4 8.0 0.00 0.00 0.00 78 1009.5
20260506140727 18 171 8.0 9.7 0.00 0.00 0.00 78 1009.3
20260506140223 18 259 6.4 8.0 0.00 0.00 0.00 78 1009.4
20260506135720 18 201 3.2 3.2 0.00 0.00 0.00 78 1009.4
20260506135216 18 219 4.8 4.8 0.00 0.00 0.00 78 1009.3
20260506134714 18 175 3.2 4.8 0.00 0.00 0.00 79 1009.0
20260506134209 18 207 1.6 1.6 0.00 0.00 0.00 79 1009.2
20260506133707 18 209 3.2 4.8 0.00 0.00 0.00 79 1009.3
20260506133203 18 194 4.8 4.8 0.00 0.00 0.00 81 1009.3
20260506132701 18 317 6.4 12.9 0.00 0.00 0.00 81 1009.2
20260506132157 18 168 4.8 4.8 0.00 0.00 0.00 81 1009.4
20260506131655 17 197 6.4 8.0 0.00 0.00 0.00 82 1009.6
20260506131151 17 172 8.0 14.5 0.00 0.00 0.00 82 1009.7
20260506130648 17 196 6.4 11.3 0.00 0.00 0.00 84 1009.6
20260506130146 17 196 1.6 1.6 0.00 0.00 0.00 85 1009.8
20260506125644 17 218 3.2 4.8 0.00 0.00 0.00 85 1009.7
20260506125141 17 155 8.0 12.9 0.00 0.00 0.00 85 1009.8
20260506124639 17 267 3.2 4.8 0.00 0.00 0.00 86 1009.7
20260506124136 16 209 0.0 1.6 0.00 0.00 0.00 86 1010.0
20260506123634 16 221 4.8 4.8 0.00 0.00 0.00 87 1009.8
20260506123132 16 161 1.6 3.2 0.00 0.00 0.00 88 1009.8
20260506122629 16 102 1.6 3.2 0.00 0.00 0.00 88 1009.7
20260506122126 16 229 6.4 9.7 0.00 0.00 0.00 88 1009.8
20260506121624 16 147 4.8 8.0 0.00 0.00 0.00 90 1010.1
20260506121120 15 126 0.0 1.6 0.00 0.00 0.00 90 1009.8
20260506120618 15 165 4.8 4.8 0.00 0.00 0.00 91 1010.0
20260506120115 15 184 4.8 4.8 0.00 0.00 0.00 91 1009.8
20260506115614 15 210 0.0 1.6 0.00 0.00 0.00 92 1010.2
20260506115112 15 258 3.2 4.8 0.00 0.00 0.00 92 1010.0
20260506114608 15 131 3.2 4.8 0.00 0.00 0.00 92 1009.6
20260506114107 15 124 4.8 9.7 0.00 0.00 0.00 93 1009.6
20260506113604 14 160 0.0 0.0 0.00 0.00 0.00 94 1010.0
20260506113101 14 251 1.6 4.8 0.00 0.00 0.00 94 1010.2
20260506112558 13 162 4.8 4.8 0.00 0.00 0.00 95 1010.2
20260506112055 13 172 4.8 8.0 0.00 0.00 0.00 96 1010.3
20260506111553 13 213 1.6 1.6 0.00 0.00 0.00 96 1010.5
20260506111050 13 148 1.6 1.6 0.00 0.00 0.00 96 1010.4
20260506110548 13 217 1.6 3.2 0.00 0.00 0.00 96 1010.5
20260506110045 13 182 3.2 3.2 0.00 0.00 0.00 96 1010.5
20260506105541 13 143 8.0 11.3 0.00 0.00 0.00 96 1010.4
20260506105039 13 173 1.6 1.6 0.00 0.00 0.00 97 1010.1
20260506104536 12 140 3.2 3.2 0.00 0.00 0.00 97 1010.0
20260506104034 12 129 0.0 0.0 0.00 0.00 0.00 97 1010.0
20260506103531 12 138 0.0 1.6 0.00 0.00 0.00 97 1010.1
20260506103027 12 131 1.6 3.2 0.00 0.00 0.00 97 1010.2
20260506102526 12 133 0.0 1.6 0.00 0.00 0.00 97 1010.1
20260506102023 12 171 0.0 1.6 0.00 0.00 0.00 97 1010.1
20260506101519 12 128 3.2 3.2 0.00 0.00 0.00 97 1010.1
20260506101017 12 221 0.0 0.0 0.00 0.00 0.00 97 1010.1
20260506100515 12 137 0.0 0.0 0.00 0.00 0.00 97 1010.2
20260506100013 12 175 0.0 0.0 0.00 0.00 0.00 97 1010.0
20260506095511 12 132 0.0 1.6 0.00 0.00 0.00 97 1010.0
20260506095007 12 134 0.0 1.6 0.00 0.00 0.00 96 1010.1
20260506094505 12 102 0.0 0.0 0.00 0.00 0.00 96 1009.8
20260506094003 12 198 0.0 0.0 0.00 0.00 0.00 96 1010.1
20260506093501 12 177 0.0 1.6 0.00 0.00 0.00 96 1009.8
20260506092958 12 150 4.8 4.8 0.00 0.00 0.00 96 1009.7
20260506092456 12 153 3.2 3.2 0.00 0.00 0.00 95 1010.1
20260506091952 12 195 1.6 1.6 0.00 0.00 0.00 95 1010.0
20260506091451 12 179 0.0 0.0 0.00 0.00 0.00 95 1010.1
20260506090947 12 109 0.0 1.6 0.00 0.00 0.00 95 1010.1
20260506090445 12 191 0.0 0.0 0.00 0.00 0.00 95 1010.0
20260506085941 12 128 0.0 0.0 0.00 0.00 0.00 94 1009.8
20260506085438 12 146 1.6 3.2 0.00 0.00 0.00 95 1010.3
20260506084935 12 236 0.0 0.0 0.00 0.00 0.00 94 1010.4
20260506084432 12 81 0.0 0.0 0.00 0.00 0.00 94 1010.3
20260506083927 12 151 1.6 3.2 0.00 0.00 0.00 94 1010.1
20260506083425 13 108 0.0 1.6 0.00 0.00 0.00 94 1009.8
20260506082922 13 104 0.0 0.0 0.00 0.00 0.00 93 1010.2
20260506082419 13 134 1.6 1.6 0.00 0.00 0.00 93 1010.2
20260506081915 13 112 1.6 3.2 0.00 0.00 0.00 93 1010.1
20260506081414 13 217 0.0 0.0 0.00 0.00 0.00 93 1010.1
20260506080910 13 138 0.0 1.6 0.00 0.00 0.00 93 1010.4
20260506080407 13 260 1.6 3.2 0.00 0.00 0.00 93 1010.5
20260506073351 13 185 1.6 1.6 0.00 0.00 0.00 91 1010.7
20260506072848 13 132 3.2 3.2 0.00 0.00 0.00 91 1010.4
20260506072346 13 223 0.0 0.0 0.00 0.00 0.00 90 1010.4
20260506071843 13 147 4.8 9.7 0.00 0.00 0.00 91 1010.3
20260506071341 13 188 1.6 1.6 0.00 0.00 0.00 91 1010.6
20260506070837 13 156 1.6 3.2 0.00 0.00 0.00 90 1009.8
20260506070335 13 174 6.4 8.0 0.00 0.00 0.00 91 1010.4
20260506062312 14 169 3.2 3.2 0.00 0.00 0.00 88 1010.3
20260506061808 14 166 1.6 3.2 0.00 0.00 0.00 88 1010.3
20260506061305 14 154 0.0 1.6 0.00 0.00 0.00 87 1010.0
20260506060803 14 200 8.0 11.3 0.00 0.00 0.00 87 1010.3
20260506060301 14 279 6.4 9.7 0.00 0.00 0.00 87 1010.2
20260506051232 15 181 1.6 1.6 0.00 0.00 0.00 83 1010.7
20260506050730 15 132 0.0 1.6 0.00 0.00 0.00 83 1010.5
20260506050227 15 191 0.0 0.0 0.00 0.00 0.00 82 1010.6
20260506044718 15 128 1.6 1.6 0.00 0.00 0.00 81 1010.6
20260506044215 15 227 0.0 1.6 0.00 0.00 0.00 81 1010.7
20260506043713 15 183 1.6 1.6 0.00 0.00 0.00 80 1010.8
20260506043210 15 157 1.6 1.6 0.00 0.00 0.00 80 1010.8
20260506042709 15 136 3.2 3.2 0.00 0.00 0.00 80 1010.7
20260506042207 15 177 1.6 1.6 0.00 0.00 0.00 79 1010.6
20260506041705 15 94 0.0 0.0 0.00 0.00 0.00 79 1010.8
20260506041201 15 162 8.0 11.3 0.00 0.00 0.00 79 1010.9
20260506040659 15 123 3.2 3.2 0.00 0.00 0.00 78 1010.8
20260506040156 15 176 3.2 3.2 0.00 0.00 0.00 78 1010.7
20260506035652 15 127 4.8 4.8 0.00 0.00 0.00 78 1010.8
20260506035149 16 185 3.2 3.2 0.00 0.00 0.00 77 1010.9
20260506034646 16 135 8.0 9.7 0.00 0.00 0.00 77 1010.9
20260506034143 16 171 4.8 4.8 0.00 0.00 0.00 77 1010.9
20260506033641 16 154 3.2 4.8 0.00 0.00 0.00 76 1010.8
20260506033137 16 145 1.6 3.2 0.00 0.00 0.00 77 1010.8
20260506032635 16 104 0.0 1.6 0.00 0.00 0.00 76 1010.7
20260506032131 16 81 3.2 3.2 0.00 0.00 0.00 77 1010.6
20260506031628 16 218 0.0 1.6 0.00 0.00 0.00 77 1010.6
20260506031125 16 260 1.6 1.6 0.00 0.00 0.00 77 1010.5
20260506030624 15 208 1.6 4.8 0.00 0.00 0.00 77 1010.6
20260506030121 15 187 4.8 8.0 0.00 0.00 0.00 77 1010.6
20260506025618 15 177 6.4 8.0 0.00 0.00 0.00 78 1010.7
20260506025113 15 189 3.2 8.0 0.00 0.00 0.00 78 1010.6
20260506024611 15 110 1.6 3.2 0.00 0.00 0.00 78 1010.5
20260506024107 15 182 9.7 12.9 0.00 0.00 0.00 78 1010.7
20260506023603 15 204 8.0 11.3 0.00 0.00 0.00 78 1010.8
20260506023101 15 166 0.0 0.0 0.00 0.00 0.00 78 1010.7
20260506022558 15 139 0.0 0.0 0.00 0.00 0.00 77 1010.7
20260506022056 15 196 0.0 1.6 0.00 0.00 0.00 77 1010.6
20260506021553 15 129 1.6 1.6 0.00 0.00 0.00 77 1010.8
20260506021050 15 130 3.2 3.2 0.00 0.00 0.00 77 1010.7
20260506020547 15 132 6.4 8.0 0.00 0.00 0.00 77 1010.5
20260506020045 15 154 0.0 1.6 0.00 0.00 0.00 77 1010.7
20260506015542 15 143 0.0 0.0 0.00 0.00 0.00 77 1010.7
20260506015039 15 165 0.0 0.0 0.00 0.00 0.00 76 1010.8
20260506014537 15 132 0.0 1.6 0.00 0.00 0.00 76 1010.6
20260506014032 15 186 0.0 1.6 0.00 0.00 0.00 76 1010.7
20260506013531 15 145 3.2 4.8 0.00 0.00 0.00 75 1010.4
20260506013026 15 190 1.6 1.6 0.00 0.00 0.00 75 1010.3
20260506012522 15 134 3.2 4.8 0.00 0.00 0.00 74 1010.4
20260506012019 16 133 0.0 1.6 0.00 0.00 0.00 74 1010.2
20260506011517 16 172 6.4 8.0 0.00 0.00 0.00 73 1010.3
20260506011013 16 231 4.8 9.7 0.00 0.00 0.00 73 1010.3
20260506010508 16 185 6.4 9.7 0.00 0.00 0.00 72 1010.1
20260506010004 16 165 1.6 3.2 0.00 0.00 0.00 72 1010.2
20260506005501 16 242 1.6 3.2 0.00 0.00 0.00 71 1010.2
20260506004956 16 207 0.0 1.6 0.00 0.00 0.00 71 1010.1
20260506004454 16 191 6.4 9.7 0.00 0.00 0.00 71 1009.8
20260506003950 16 220 1.6 3.2 0.00 0.00 0.00 71 1010.0
20260506003447 16 159 3.2 3.2 0.00 0.00 0.00 71 1009.8
20260506002943 17 133 0.0 1.6 0.00 0.00 0.00 71 1009.4
20260506002439 17 171 0.0 0.0 0.00 0.00 0.00 70 1009.7
20260506001935 17 180 0.0 1.6 0.00 0.00 0.00 70 1009.5
20260506001432 17 149 8.0 11.3 0.00 0.00 0.00 69 1009.4
20260506000929 17 166 6.4 8.0 0.00 0.00 0.00 69 1009.3
20260506000427 17 190 6.4 9.7 0.00 0.00 0.00 69 1009.1
20260505235923 17 155 3.2 4.8 0.00 0.00 0.00 69 1009.1
20260505235422 17 300 1.6 3.2 0.00 0.00 0.00 68 1009.1
20260505234918 18 212 3.2 3.2 0.00 0.00 0.00 68 1008.9
20260505234416 18 230 6.4 9.7 0.00 0.00 0.00 67 1009.1
20260505233912 18 225 4.8 8.0 0.00 0.00 0.00 67 1009.0
20260505233410 18 185 1.6 3.2 0.00 0.00 0.00 66 1008.7
20260505232907 18 237 1.6 1.6 0.00 0.00 0.00 65 1008.7
20260505232405 18 221 9.7 11.3 0.00 0.00 0.00 64 1008.6
20260505231902 18 158 6.4 8.0 0.00 0.00 0.00 64 1008.6
20260505231359 19 277 4.8 9.7 0.00 0.00 0.00 64 1008.3
20260505230857 19 184 1.6 3.2 0.00 0.00 0.00 63 1008.5
20260505230354 19 213 4.8 9.7 0.00 0.00 0.00 63 1008.4
20260505225851 19 167 4.8 9.7 0.00 0.00 0.00 62 1008.3
20260505225348 20 271 4.8 8.0 0.00 0.00 0.00 62 1008.3
20260505224843 20 191 1.6 3.2 0.00 0.00 0.00 62 1008.2
20260505224341 20 183 1.6 1.6 0.00 0.00 0.00 61 1008.3
20260505223838 20 144 4.8 8.0 0.00 0.00 0.00 60 1008.1
20260505223335 20 226 1.6 3.2 0.00 0.00 0.00 60 1008.1
20260505222831 20 16 3.2 4.8 0.00 0.00 0.00 60 1007.7
20260505222327 20 289 8.0 12.9 0.00 0.00 0.00 59 1007.9
20260505221824 21 178 4.8 9.7 0.00 0.00 0.00 59 1007.8
20260505221321 21 213 4.8 4.8 0.00 0.00 0.00 59 1007.7
20260505220818 21 130 12.9 14.5 0.00 0.00 0.00 58 1007.9
20260505220315 21 174 4.8 8.0 0.00 0.00 0.00 58 1007.9
20260505215813 21 150 4.8 4.8 0.00 0.00 0.00 58 1007.9
20260505215311 21 224 4.8 8.0 0.00 0.00 0.00 57 1007.9
20260505214808 22 164 6.4 8.0 0.00 0.00 0.00 56 1007.8
20260505214306 22 192 8.0 9.7 0.00 0.00 0.00 56 1007.8
20260505213802 22 223 14.5 24.1 0.00 0.00 0.00 55 1007.8
20260505213301 22 148 12.9 16.1 0.00 0.00 0.00 56 1007.8
20260505212755 22 211 3.2 4.8 0.00 0.00 0.00 56 1008.0
20260505212253 22 245 11.3 12.9 0.00 0.00 0.00 55 1007.9
20260505211750 22 137 3.2 4.8 0.00 0.00 0.00 56 1007.8
20260505211248 22 224 16.1 24.1 0.00 0.00 0.00 55 1007.7
20260505210743 22 276 4.8 8.0 0.00 0.00 0.00 54 1007.8
20260505210241 23 200 11.3 17.7 0.00 0.00 0.00 53 1007.6
20260505205738 23 149 3.2 4.8 0.00 0.00 0.00 54 1007.6
20260505205236 23 131 3.2 3.2 0.00 0.00 0.00 53 1007.8
20260505204732 24 161 14.5 22.5 0.00 0.00 0.00 52 1007.7
20260505204230 24 246 8.0 11.3 0.00 0.00 0.00 53 1007.4
20260505203727 24 219 9.7 11.3 0.00 0.00 0.00 52 1007.7
20260505203224 24 166 4.8 4.8 0.00 0.00 0.00 52 1007.5
20260505202720 25 79 8.0 9.7 0.00 0.00 0.00 51 1007.7
20260505202216 25 287 8.0 11.3 0.00 0.00 0.00 51 1007.8
20260505201713 24 292 4.8 4.8 0.00 0.00 0.00 52 1007.7
20260505201211 24 265 1.6 3.2 0.00 0.00 0.00 50 1007.9
20260505200708 24 191 9.7 12.9 0.00 0.00 0.00 50 1007.5
20260505200205 25 184 11.3 17.7 0.00 0.00 0.00 49 1007.5
20260505195701 25 237 4.8 4.8 0.00 0.00 0.00 47 1007.9
20260505195158 25 178 4.8 8.0 0.00 0.00 0.00 49 1007.7
20260505194655 25 105 8.0 9.7 0.00 0.00 0.00 47 1007.7
20260505194151 25 291 8.0 11.3 0.00 0.00 0.00 48 1007.7
20260505193648 26 216 4.8 8.0 0.00 0.00 0.00 47 1007.4
20260505193145 26 208 4.8 8.0 0.00 0.00 0.00 49 1007.8